117  
ASHW40 PHFO 070112  
RWRHI  
 
WEATHER ROUNDUP FOR HAWAII  
NATIONAL WEATHER SERVICE HONOLULU HI  
300 PM HST MON APR 06 2020  
 
THIS IS AN AUTOMATED REPORT THAT HAS NOT BEEN QUALITY CONTROLLED.  
 
NOTE..."FAIR" INDICATES FEW OR NO CLOUDS BELOW 12,000 FEET WITH NO  
SIGNIFICANT WEATHER AND/OR S TO VISIBILITY
.  
 
* - THESE SITES REPORT LIMITED FIELDS  
# - BUOY DATA PROVIDED BY PACIFIC ISLANDS OCEAN OBSERVING SYSTEM.  
 
HIZ001>004-070200-  
KAUAI-NIIHAU-  
 
CITY SKY/WX TMP DP RH WIND PRES REMARKS
 
LIHUE APT FAIR 81 70 69 NE17 29.86S  
PORT ALLEN* N/A 81 N/A N/A W9 N/A  
POIPU* N/A 81 N/A N/A SW7G16 N/A  
PRINCEVILLE* N/A 79 N/A N/A NW6G13 N/A  
KOKOLE POINT* NOT AVBL  
MOLOAA DAIRY* N/A 81 72 74 N2G8 N/A  
WAIMEA HTS* NOT AVBL  
PUU OPAE* NOT AVBL  
PUU LUA* NOT AVBL  
MAKAHA RIDGE* NOT AVBL  

 
 
HIZ005>011-070200-  
OAHU-  
 
CITY SKY/WX TMP DP RH WIND PRES REMARKS
 
HONOLULU PTSUNNY 76 74 93 S9 29.89S  
KALAELOA FAIR 80 72 76 SW12 29.89  
KANEOHE MCB CLOUDY 79 69 71 SW15G24 29.85S HAZE  
WHEELER FIELD LGT RAIN 73 70 88 SW5 29.88S  
BELLOWS* NOT AVBL  
KAHUKU* NOT AVBL  
WHEELER* NOT AVBL  
WAIANAE HARBOR NOT AVBL  
DILLINGHAM* N/A 75 72 88 W2G20 N/A  
KAHUKU TRN* N/A 81 73 78 SW2G9 N/A  
KAWAILOA* NOT AVBL  
KII* N/A 75 72 88 E3G10 N/A  
MAKUA RANGE* N/A 73 68 83 NW5G14 N/A  
OAHU FOREST NW NOT AVBL  
SCHOFIELD BRK* N/A 72 66 83 SW6 N/A  
SCHOFIELD S* NOT AVBL  
WAIANAE VLY* NOT AVBL  
KUAOKALA* NOT AVBL  
HONOULIUULI* NOT AVBL  
MOKUOLOE IS* N/A 79 N/A N/A S6G13 N/A  
PALEHUA* NOT AVBL  
WAIAWA PHB* NOT AVBL  

 
 
HIZ012>013-070200-  
MOLOKAI-  
 
CITY SKY/WX TMP DP RH WIND PRES REMARKS
 
MOLOKAI AIRPT HVY RAIN 73 69 87 SW13 29.91S FOG  
KALAUPAPA NOT AVBL  
MAKAPULAPAI* NOT AVBL  
MOLOKAI 1* NOT AVBL  
PUU ALII* NOT AVBL  

 
 
HIZ016-070200-  
KAHOOLAWE-  
 
CITY SKY/WX TMP DP RH WIND PRES REMARKS
 
KAHOOLAWE* NOT AVBL  
HAKIOAWA* NOT AVBL  
HONOKANAIA* NOT AVBL  
KANELOA* N/A 79 70 73 S8G16 29.97F  
KEALIALALO* NOT AVBL  
LUA MAKIKA* NOT AVBL  

 
 
HIZ014>015-070200-  
LANAI-  
 
CITY SKY/WX TMP DP RH WIND PRES REMARKS
 
LANAI CITY LGT RAIN 72 32 23 SW13 29.95F  
LANAI 1* NOT AVBL  

 
 
HIZ017>028-070200-  
MAUI-  
 
CITY SKY/WX TMP DP RH WIND PRES REMARKS
 
KAHULUI FAIR 81 67 62 N12 29.88F  
KAPALUA-W MAUI MOSUNNY 79 72 78 SW8G15 29.90  
HANA AIRPORT DRIZZLE 75 70 83 E7 29.91S  
HANA* N/A 77 N/A N/A VRB1 N/A  
HALEAKALA SUMM N/A 46 45 93 SW12 N/A VSB 0  
MAALAEA BAY* NOT AVBL  
HALEAKALA* NOT AVBL  
KAUPO GAP* NOT AVBL  
KULA 1* N/A 57 54 89 W6G14 N/A  

 
 
HIZ023>026-070200-  
BIG ISLAND OF HAWAII COAST AND LOWER SLOPES-  
 
CITY SKY/WX TMP DP RH WIND PRES REMARKS
 
KAILUA KONA FAIR 81 69 67 SW9 29.88F  
HILO FAIR 81 67 62 E18 29.88S  
HONOKAA* NOT AVBL  
KAWAIHAE MWT* NOT AVBL  
KAWAIHAE* N/A 77 N/A N/A W7 29.88  
SOUTH POINT* N/A 73 N/A N/A SE15G21 N/A  
UPOLU AIRPORT* N/A 79 N/A N/A NE6 N/A  
KAMUELA* MOCLDY 75 63 64 SW5 29.99F  
HAKALAU* N/A 55 53 94 N7G13 N/A  
KALOKO-HONOKO* NOT AVBL  
PALI 2* N/A 66 63 88 SE3G13 N/A  
KEALAKOMO* N/A 81 66 61 SE8 N/A  
KAUPULEHU* NOT AVBL  
KAPAPALA* N/A 75 69 80 SE6G12 N/A  
LOWER KAHUKU* NOT AVBL  
PUHE CS* NOT AVBL  
PUHO CS* NOT AVBL  
PTA KEAMUKU* N/A 66 63 88 NW7G16 N/A  
WAIKOLOA* NOT AVBL  

 
 
HIZ027>028-070200-  
BIG ISLAND OF HAWAII INTERIOR AND SUMMMITS-  
 
CITY SKY/WX TMP DP RH WIND PRES REMARKS
 
BRADSHAW FIELD NOT AVBL  
MK VISITOR CEN N/A 50 41 71 W10 N/A  
MAUNA KEA* NOT AVBL  
MAUNA LOA* NOT AVBL  
MAUNA LOA 1* NOT AVBL  
PTA KIPUKA* N/A 59 57 94 NW5G14 N/A  
PTA RANGE 17* N/A 63 55 77 NW12G21 N/A  
PTA WEST* N/A N/A N/A N/A N8G17 N/A  
NENE CABIN* NOT AVBL  
AHUMOA* NOT AVBL  
PTA PORTABLE* NOT AVBL  
PUU MALI* N/A 55 52 88 E2G23 N/A  

 
 
HIC003-070200-  
NORTHWEST ISLANDS-  
 
CITY SKY/WX TMP DP RH WIND PRES REMARKS
 
MIDWAY ISLAND NOT AVBL  
MIDWAY NOS* NOT AVBL  
FRENCH FRIGATE NOT AVBL  

 
 
PHZ110>124-180-070200-  
BUOY REPORTS  
 
STATION/POSITION TIME TEMP WIND PRES WAVE SWELL
 
AIR SEA DIR/SP/G HT/PER HT/DIR  
(UTC) (F) (DEG/KT/KT) (MB) (FT/S) (FT/D)  
BUOY 51101 0050 74 270/ 14/ 19 1011.5F 7/16 7/310  
BUOY 51100 NOT AVBL  
BUOY 51002 0050 77 78 90/ 8/ 10 1011.2F 6/ 8 5/ 90  
BUOY 51003 0050 78 250/ 4/ 6 1012.7F 5/10 5/310  
BUOY 51004 0050 75 75 100/ 14/ 17 1012.1F 6/ 8 5/ 70  
WAIMEA BAY# 0100 77 N/A 4/17 2/330  
MOKAPU POINT# NOT AVBL  
LANAI# 0030 78 N/A 3/11 2/220  
BARBERS PT# 0100 78 N/A 4/17 2/320  
PAUWELA# 0100 77 N/A 4/18 2/310  
HILO# 0046 76 N/A 5/ 8 2/350  
KANEOHE BAY# 0100 78 N/A 3/ 9 2  
KANEOHE BAY 2# NOT AVBL  
HANALEI# 0100 77 N/A 5/17 2/320  
KAHULUI HARBOR 0030 76 76 350/ 9/ 11 1012.1F  
HONOLULU HARBOR 0030 200/ 5/ 8 N/A  
PEARL HARBOR# 0000 78 N/A 3/ 9 2/170  
KILO NALU NOT AVBL  
HILO HARBOR 0030 81 77 140/ 10/ 16 1010.0S  
MOKUOLOE 0036 80 79 170/ 8/ 12 1011.3F  
NAWILIWILI 0030 80 79 250/ 8/ 15 1011.1F  
WHOTS BUOY NOT AVBL  
BUOY 51028 NOT AVBL  

 
   
.....................KEY.....................................
 
 
SKY/WX - SKY CONDITIONS/PRESENT WEATHER  
TMP - TEMPERATURE IN FAHRENHEIT  
DWPT - DEWPOINT IN FAHRENHEIT  
RH - RELATIVE HUMIDITY IN PERCENT  
WIND - DIRECTION AND SPEED /MPH FOR ISLANDS...KTS FOR BUOYS/  
PRES - MEAN SEA LEVEL PRESSURE IN INCHES OF HG  
VSB - VISIBILITY IN MILES  
HX - HEAT INDEX  
WCI - WIND CHILL INDEX  
VRB - VARIABLE WIND DIRECTION  
N/A - NOT AVAILABLE  
 
 
CLICK HERE TO GO TO PREVIOUS BULLETINS.

The Nexlab HI Page Main Text Page